USA 176 (DSP 22)

Last updated on Sun Nov 02 2025 00:02:46 GMT+0000 (Coordinated Universal Time)

1 28158U 04004A 25305.30012784 -.00000145 00000+0 00000+0 0 9991 2 28158 11.7501 27.6964 0003745 225.0293 159.6408 1.00267472 30653
UTC large
Height (km)
Speed (km/s)
/
Latitude / Longitude
Inclination (degrees)
Orbital Period (minutes)
Azimuth
Elevation
Range (km)
Doppler Factor

Next 0 passes for location: London (51.5072 / 0.1276)

Sorry there are no passes over London.